TimeEDT,TemperatureF,Dew PointF,Humidity,Sea Level PressureIn,VisibilityMPH,Wind Direction,Wind SpeedMPH,Gust SpeedMPH,PrecipitationIn,Events,Conditions,WindDirDegrees,DateUTC
12:54 AM,62.1,48.9,62,29.93,10.0,Calm,Calm,-,N/A,,Clear,0,2008-08-12 04:54:00
1:54 AM,57.9,51.1,78,29.93,10.0,Calm,Calm,-,N/A,,Clear,0,2008-08-12 05:54:00
2:54 AM,57.0,48.9,74,29.91,10.0,Calm,Calm,-,N/A,,Clear,0,2008-08-12 06:54:00
3:54 AM,55.0,51.1,86,29.92,10.0,Calm,Calm,-,N/A,,Partly Cloudy,0,2008-08-12 07:54:00
4:54 AM,55.4,51.8,88,29.99,10.0,Calm,Calm,-,N/A,,Overcast,0,2008-08-12 08:54:00
5:54 AM,55.9,51.1,84,29.92,10.0,Calm,Calm,-,N/A,,Mostly Cloudy,0,2008-08-12 09:54:00
6:54 AM,55.9,52.0,87,29.93,10.0,Calm,Calm,-,N/A,,Mostly Cloudy,0,2008-08-12 10:54:00
7:54 AM,57.2,53.6,88,30.00,10.0,Calm,Calm,-,N/A,,Scattered Clouds,0,2008-08-12 11:54:00
8:54 AM,61.0,54.0,78,29.94,10.0,SSW,3.5,-,N/A,,Partly Cloudy,210,2008-08-12 12:54:00
9:54 AM,64.9,52.0,63,29.93,10.0,Calm,Calm,-,N/A,,Overcast,0,2008-08-12 13:54:00
10:54 AM,70.0,52.0,53,29.93,10.0,Variable,3.5,-,N/A,,Mostly Cloudy,0,2008-08-12 14:54:00
11:54 AM,75.0,53.1,46,29.92,10.0,Variable,5.8,-,N/A,,Scattered Clouds,0,2008-08-12 15:54:00
12:54 PM,75.0,52.0,44,29.90,10.0,Variable,3.5,-,N/A,,Clear,0,2008-08-12 16:54:00
1:54 PM,77.0,55.0,47,29.88,10.0,SSW,10.4,-,N/A,,Clear,210,2008-08-12 17:54:00
2:54 PM,78.1,55.0,45,29.86,10.0,Variable,3.5,-,N/A,,Clear,0,2008-08-12 18:54:00
3:54 PM,78.1,55.0,45,29.84,10.0,Variable,4.6,-,N/A,,Clear,0,2008-08-12 19:54:00
4:54 PM,78.1,55.0,45,29.82,10.0,SSE,8.1,-,N/A,,Clear,150,2008-08-12 20:54:00
5:54 PM,75.9,55.0,48,29.82,10.0,SSE,9.2,-,N/A,,Clear,160,2008-08-12 21:54:00
6:54 PM,75.0,55.9,51,29.83,10.0,SE,3.5,-,N/A,,Clear,140,2008-08-12 22:54:00
7:54 PM,73.0,57.0,57,29.83,10.0,South,4.6,-,N/A,,Clear,180,2008-08-12 23:54:00
8:54 PM,71.1,57.9,63,29.83,10.0,Calm,Calm,-,N/A,,Partly Cloudy,0,2008-08-13 00:54:00
9:54 PM,72.0,57.0,59,29.83,10.0,Calm,Calm,-,N/A,,Overcast,0,2008-08-13 01:54:00
10:54 PM,69.1,60.1,73,29.82,10.0,WSW,3.5,-,N/A,,Overcast,240,2008-08-13 02:54:00
11:54 PM,69.1,60.1,73,29.81,9.0,SSE,4.6,-,N/A,,Partly Cloudy,160,2008-08-13 03:54:00